Weather in Aktas

Turkey     37°57′13″N   41°48′24″E
temp.,
°C
wind,
m/s
gust,
m/s
humid.,
%
clouds,
%
prec.,
mm/h
press.,
hPa
HPBL,
m
19 may, wed
wed1900:00+19ne22351 0.0 101111
03:00+18ene11350 0.0 101111
06:00+19ne11390 0.0 101111
09:00+25ssw11260 0.0 1011471
12:00+29sw23210 0.0 10112131
15:00+31wnw34190 0.0 10092564
18:00+28nw34320 0.0 100998
21:00+23e11330 0.0 101011
20 may, thu
thu2000:00+21nne11360 0.0 101111
03:00+20ne11370 0.0 101111
06:00+20nne11420 0.0 101211
09:00+27sw00280 0.0 1012452
12:00+31sw32200 0.0 10112423
15:00+33wnw24150 0.0 10092547
18:00+30nnw33260 0.0 100941
21:00+25nne11240 0.0 101111
21 may, fri
fri2100:00+22ne11270 0.0 101211
03:00+21ne11280 0.0 101211
06:00+21ne11320 0.0 101211
09:00+29ese11210 0.0 1011395
12:00+33wnw13130 0.0 10102070
15:00+34nw23130 0.0 10082187
18:00+32nne22220 0.0 100713
21:00+27ne222125 0.0 100812
22 may, sat
sat2200:00+24ne222310 0.0 100712
03:00+22w11263 0.0 100711
06:00+22n1133100 0.0 100811
09:00+27ese2123100 0.0 1007362
12:00+32sw2319100 0.0 10061426
15:00+27w81131100 0.0 1006406
18:00+26ene343898 0.0 1005203
21:00+22ene224015 0.0 100511
23 may, sun
sun2300:00+21n1143100 0.1 100411
03:00+22ese123898 0.1 100219
06:00+19se225996 0.3 100439
09:00+25ssw22395 0.3 1003509
12:00+29sw36290 0.0 10022007
15:00+30ssw79150 0.0 10022011
18:00+25sw58269 0.0 1004326
21:00+19ese003864 0.0 100811